Hourly Data Report for October 24, 2013

All times are specified in Local Standard Time (LST). Add 1 hour to adjust for Daylight Saving Time where and when it is observed.

ARVIAT A
NUNAVUT

61°05'38.000" N
94°04'18.000" W
10.40 m
2300427
71174
YEK

Download Data

Hourly Data (October 2013)
Hourly Data Report for October 24, 2013
Temp Definition
°C
Dew Point Temp Definition
°C
Rel Hum Definition
%
Wind Dir Definition
10's deg

Wind Spd Definition
km/h
Visibility Definition
km
Stn Press Definition
kPa
Hmdx Definition


Wind Chill Definition


Weather Definition


TIME
00:00 Legend Double Dagger -3.7 -4.1 97 34 37 6.4 101.52   -12 LegendNANA
01:00 Legend Double Dagger -4.2 -4.7 96 34 35 14.5 101.55   -13 LegendNANA
02:00 Legend Double Dagger -4.7 -5.4 95 33 32 16.1 101.59   -13 LegendNANA
03:00 Legend Double Dagger -5.4 -6.1 95 33 30 16.1 101.60   -14 LegendNANA
04:00 Legend Double Dagger -6.2 -6.7 96 32 30 16.1 101.62   -15 LegendNANA
05:00 Legend Double Dagger -7.5 -8.3 94 32 26 16.1 101.67   -16 LegendNANA
06:00 Legend Double Dagger -8.3 -9.2 93 32 30 16.1 101.69   -17 LegendNANA
07:00 Legend Double Dagger -9.8 -10.5 95 32 32 16.1 101.72   -20 LegendNANA
08:00 Legend Double Dagger -10.7 -11.4 95 32 21 16.1 101.70   -19 LegendNANA
09:00 Legend Double Dagger -11.1 -11.8 95 33 21 16.1 101.67   -19 LegendNANA
10:00 Legend Double Dagger -10.9 -11.8 93 33 18 16.1 101.64   -19 LegendNANA
11:00 Legend Double Dagger -9.5 -10.4 93 30 21 16.1 101.67   -17 LegendNANA
12:00 Legend Double Dagger -9.1 -9.5 97 30 18 16.1 101.65   -16 LegendNANA
13:00 Legend Double Dagger -8.0 -8.5 96 32 17 16.1 101.61   -15 LegendNANA
14:00 Legend Double Dagger -7.9 -8.4 96 33 13 16.1 101.54   -14 LegendNANA
15:00 Legend Double Dagger -8.1 -8.2 99 28 9 0.6 101.53   -13 LegendNANA
16:00 Legend Double Dagger -8.3 -8.9 96 27 9 16.1 101.49   -13 LegendNANA
17:00 Legend Double Dagger -9.4 -9.8 97 27 9 16.1 101.45   -14 LegendNANA
18:00 Legend Double Dagger -9.7 -10.1 97 27 9 16.1 101.38   -15 LegendNANA
19:00 Legend Double Dagger -9.9 -10.5 95 26 8 2.8 101.32   -14 LegendNANA
20:00 Legend Double Dagger -10.2 -10.9 95 28 5 16.1 101.25   -13 LegendNANA
21:00 Legend Double Dagger -9.7 -10.2 96 27 5 16.1 101.20   -13 LegendNANA
22:00 Legend Double Dagger -10.2 -10.7 96 28 9 4.0 101.15   -15 LegendNANA
23:00 Legend Double Dagger -9.7 -10.2 96 33 4 4.8 101.10   -12 LegendNANA

Notes on Data Quality.

Legend

  • E = Estimated
  • M = Missing
  • NA = Not Available
  • ‡ = Partner data that is not subject to review by the National Climate Archives
Date modified: